User: anonymous   Login
Location: �bnet
(46.9957°N, 8.4908°E)
Time: 00:35:16
(UTC+00:00)
Language:

SL-24 DEB - Orbit

View from above orbital plane
View from above orbital plane
View from above satellite
View from above satellite

Ground track
Ground track

The orbit data is extracted from the following two-line orbital elements,

1 36510U 10013C   21213.44812933  .00000262  00000-0  49694-4 0  9999
2 36510  92.0174 222.9873 0026722 113.7515 246.6506 14.63406016603228
Epoch (UTC): 01 August 2021 10:45:18
Eccentricity: 0.0026722
inclination: 92.0174°
perigee height: 663 km
apogee height: 701 km
right ascension of ascending node: 222.9873°
argument of perigee: 113.7515°
revolutions per day: 14.63406016
mean anomaly at epoch: 246.6506°
orbit number at epoch: 60322

The dashed part of the orbit path shows where the satellite is in the earth's shadow,  

DLR